sim
Sign-in with your pilot id or email,
or register
Callsign
Passwort

Schedule Details

Flight Number: RYR2171 (2)
Departure: Bratislava M. R. Stefanik Airport (LZIB) at 14:40
Arrival: Thessaloniki International Airport (LGTS) at 16:30
Route: Ryanair Passenger Schedule. Enter filed route here before submitting Pirep.

Weather Information
Getting current METAR information for LZIB 252130Z 17011KT CAVOK 19/09 Q1012
Getting current METAR information for LGTS 252120Z 00000KT CAVOK 15/12 Q1020 NOSIG

Schedule Frequency

Route Map